When you browse on this site, cookies collect data to enhance your experience and personalize the content and advertising you see.
Visit our Privacy Policy to learn more. By continuing to use the site, you agree to this use of cookies and data.
  • In Spain
  • List of Countries
  • For 7 days
  • Water Temperature
  • Satellite Maps
  • Weather Map
  • Weather Widgets
  • user-avatar
    Login

    Hourly Weather Ar-Rakka

    Today, 22 April, Monday

    Time Temperature Precipitation Wind Pressure Humidity
    00:00 +10°C° 0.3 mm 9 mps 733 mmHg 70%
    01:00 +10°C° 0.1 mm 9 mps 733 mmHg 66%
    02:00 +10°C° 0.1 mm 9 mps 733 mmHg 63%
    03:00 +8°C° 0 mm 9 mps 732 mmHg 58%
    04:00 +9°C° 0 mm 8 mps 733 mmHg 58%
    05:00 +9°C° 0 mm 8 mps 733 mmHg 58%
    06:00 +9°C° 0 mm 8 mps 733 mmHg 58%
    07:00 +10°C° 0 mm 7 mps 733 mmHg 54%
    08:00 +11°C° 0 mm 7 mps 734 mmHg 50%
    09:00 +12°C° 0 mm 7 mps 734 mmHg 45%
    10:00 +15°C° 0 mm 7 mps 734 mmHg 42%
    11:00 +16°C° 0 mm 6 mps 735 mmHg 38%
    12:00 +17°C° 0 mm 6 mps 735 mmHg 35%
    13:00 +19°C° 0 mm 6 mps 735 mmHg 33%
    14:00 +18°C° 0 mm 7 mps 735 mmHg 32%
    15:00 +20°C° 0 mm 7 mps 735 mmHg 30%
    16:00 +18°C° 0 mm 7 mps 736 mmHg 31%
    17:00 +18°C° 0 mm 7 mps 736 mmHg 32%
    18:00 +18°C° 0 mm 7 mps 736 mmHg 33%
    19:00 +17°C° 0 mm 7 mps 737 mmHg 36%
    20:00 +17°C° 0 mm 7 mps 737 mmHg 39%
    21:00 +16°C° 0 mm 8 mps 738 mmHg 42%
    22:00 +15°C° 0 mm 8 mps 738 mmHg 45%
    23:00 +13°C° 0 mm 8 mps 738 mmHg 49%

    Tomorrow, 23 April, Tuesday

    Time Temperature Precipitation Wind Pressure Humidity
    00:00 +12°C° 0 mm 8 mps 739 mmHg 52%
    01:00 +12°C° 0 mm 8 mps 739 mmHg 53%
    02:00 +11°C° 0 mm 7 mps 739 mmHg 54%
    03:00 +11°C° 0 mm 6 mps 740 mmHg 56%
    04:00 +12°C° 0 mm 5 mps 740 mmHg 58%
    05:00 +10°C° 0 mm 5 mps 740 mmHg 60%
    06:00 +11°C° 0 mm 4 mps 741 mmHg 62%
    07:00 +12°C° 0 mm 4 mps 741 mmHg 56%
    08:00 +13°C° 0 mm 4 mps 742 mmHg 51%
    09:00 +15°C° 0 mm 5 mps 743 mmHg 46%
    10:00 +17°C° 0 mm 4 mps 743 mmHg 42%
    11:00 +18°C° 0 mm 4 mps 743 mmHg 38%
    12:00 +20°C° 0 mm 3 mps 743 mmHg 34%
    13:00 +20°C° 0 mm 3 mps 743 mmHg 32%
    14:00 +21°C° 0 mm 3 mps 743 mmHg 30%
    15:00 +22°C° 0 mm 3 mps 743 mmHg 28%
    16:00 +22°C° 0 mm 3 mps 743 mmHg 29%
    17:00 +22°C° 0 mm 3 mps 743 mmHg 29%
    18:00 +22°C° 0 mm 3 mps 743 mmHg 29%
    19:00 +21°C° 0 mm 2 mps 743 mmHg 31%
    20:00 +20°C° 0 mm 2 mps 744 mmHg 34%
    21:00 +20°C° 0 mm 1 mps 744 mmHg 37%
    22:00 +19°C° 0 mm 2 mps 744 mmHg 38%
    23:00 +18°C° 0 mm 3 mps 744 mmHg 40%

    Day after tomorrow, 24 April, Wednesday

    Time Temperature Precipitation Wind Pressure Humidity
    00:00 +17°C° 0 mm 4 mps 745 mmHg 41%
    01:00 +17°C° 0 mm 4 mps 745 mmHg 44%
    02:00 +16°C° 0 mm 3 mps 745 mmHg 47%
    03:00 +16°C° 0 mm 3 mps 745 mmHg 49%
    04:00 +14°C° 0 mm 3 mps 745 mmHg 50%
    05:00 +14°C° 0 mm 3 mps 745 mmHg 51%
    06:00 +13°C° 0 mm 3 mps 745 mmHg 52%
    07:00 +16°C° 0 mm 3 mps 745 mmHg 47%
    08:00 +17°C° 0 mm 2 mps 745 mmHg 42%
    09:00 +18°C° 0 mm 2 mps 746 mmHg 37%
    10:00 +19°C° 0 mm 2 mps 746 mmHg 33%
    11:00 +21°C° 0 mm 2 mps 746 mmHg 29%
    12:00 +23°C° 0 mm 2 mps 746 mmHg 25%
    13:00 +24°C° 0 mm 3 mps 745 mmHg 23%
    14:00 +25°C° 0 mm 3 mps 745 mmHg 21%
    15:00 +25°C° 0 mm 3 mps 744 mmHg 19%
    16:00 +25°C° 0 mm 3 mps 744 mmHg 19%
    17:00 +25°C° 0 mm 3 mps 744 mmHg 19%
    18:00 +25°C° 0 mm 3 mps 743 mmHg 19%
    19:00 +24°C° 0 mm 2 mps 743 mmHg 23%
    20:00 +23°C° 0 mm 2 mps 743 mmHg 27%
    21:00 +22°C° 0 mm 1 mps 743 mmHg 30%
    22:00 +21°C° 0 mm 2 mps 743 mmHg 31%
    23:00 +20°C° 0 mm 2 mps 743 mmHg 32%

    25 April, Thursday

    Time Temperature Precipitation Wind Pressure Humidity
    00:00 +20°C° 0 mm 3 mps 743 mmHg 32%
    01:00 +19°C° 0 mm 3 mps 743 mmHg 35%
    02:00 +19°C° 0 mm 3 mps 742 mmHg 37%
    03:00 +18°C° 0 mm 3 mps 742 mmHg 39%
    04:00 +18°C° 0 mm 3 mps 742 mmHg 41%
    05:00 +17°C° 0 mm 3 mps 742 mmHg 43%
    06:00 +17°C° 0 mm 3 mps 742 mmHg 45%
    07:00 +18°C° 0 mm 3 mps 742 mmHg 42%
    08:00 +20°C° 0 mm 3 mps 742 mmHg 39%
    09:00 +21°C° 0 mm 3 mps 743 mmHg 36%
    10:00 +22°C° 0 mm 4 mps 743 mmHg 33%
    11:00 +25°C° 0 mm 4 mps 742 mmHg 30%
    12:00 +26°C° 0 mm 4 mps 742 mmHg 27%
    13:00 +26°C° 0 mm 5 mps 742 mmHg 27%
    14:00 +27°C° 0 mm 5 mps 741 mmHg 26%
    15:00 +27°C° 0 mm 5 mps 741 mmHg 25%
    16:00 +27°C° 0 mm 5 mps 741 mmHg 25%
    17:00 +27°C° 0 mm 4 mps 741 mmHg 25%
    18:00 +27°C° 0 mm 4 mps 740 mmHg 25%
    19:00 +26°C° 0 mm 3 mps 741 mmHg 28%
    20:00 +25°C° 0 mm 2 mps 741 mmHg 30%
    21:00 +24°C° 0 mm 2 mps 741 mmHg 32%
    22:00 +23°C° 0 mm 1 mps 741 mmHg 33%
    23:00 +22°C° 0 mm 1 mps 741 mmHg 34%

    26 April, Friday

    Time Temperature Precipitation Wind Pressure Humidity
    00:00 +22°C° 0 mm 1 mps 741 mmHg 35%
    01:00 +21°C° 0 mm 1 mps 740 mmHg 37%
    02:00 +21°C° 0 mm 1 mps 740 mmHg 39%
    03:00 +18°C° 0 mm 0 mps 740 mmHg 40%
    04:00 +20°C° 0 mm 1 mps 740 mmHg 40%
    05:00 +20°C° 0 mm 1 mps 740 mmHg 40%
    06:00 +20°C° 0 mm 1 mps 740 mmHg 40%
    07:00 +20°C° 0 mm 2 mps 740 mmHg 36%
    08:00 +21°C° 0 mm 2 mps 741 mmHg 32%
    09:00 +24°C° 0 mm 2 mps 741 mmHg 28%
    10:00 +25°C° 0 mm 2 mps 741 mmHg 26%
    11:00 +26°C° 0 mm 1 mps 741 mmHg 24%
    12:00 +27°C° 0 mm 1 mps 741 mmHg 23%
    13:00 +27°C° 0 mm 1 mps 740 mmHg 23%
    14:00 +28°C° 0 mm 1 mps 740 mmHg 22%
    15:00 +28°C° 0 mm 1 mps 739 mmHg 22%
    16:00 +29°C° 0 mm 1 mps 739 mmHg 22%
    17:00 +27°C° 0 mm 0 mps 739 mmHg 22%
    18:00 +27°C° 0 mm 0 mps 738 mmHg 22%
    19:00 +28°C° 0 mm 1 mps 739 mmHg 24%
    20:00 +27°C° 0 mm 2 mps 739 mmHg 25%
    21:00 +26°C° 0 mm 3 mps 739 mmHg 27%
    22:00 +26°C° 0 mm 3 mps 739 mmHg 28%
    23:00 +25°C° 0 mm 3 mps 739 mmHg 29%

    27 April, Saturday

    Time Temperature Precipitation Wind Pressure Humidity
    00:00 +23°C° 0 mm 4 mps 739 mmHg 30%
    01:00 +24°C° 0 mm 3 mps 739 mmHg 31%
    02:00 +22°C° 0 mm 3 mps 738 mmHg 32%
    03:00 +21°C° 0 mm 3 mps 738 mmHg 33%
    04:00 +21°C° 0 mm 3 mps 739 mmHg 35%
    05:00 +21°C° 0 mm 3 mps 739 mmHg 37%
    06:00 +20°C° 0 mm 2 mps 739 mmHg 39%
    07:00 +20°C° 0.1 mm 3 mps 740 mmHg 42%
    08:00 +21°C° 0.1 mm 4 mps 740 mmHg 45%
    09:00 +21°C° 0.1 mm 5 mps 741 mmHg 48%
    10:00 +21°C° 0.1 mm 4 mps 741 mmHg 50%
    11:00 +21°C° 0.1 mm 3 mps 741 mmHg 51%
    12:00 +21°C° 0.1 mm 2 mps 741 mmHg 53%
    13:00 +21°C° 0.1 mm 3 mps 740 mmHg 51%
    14:00 +22°C° 0.1 mm 4 mps 740 mmHg 49%
    15:00 +22°C° 0.1 mm 5 mps 740 mmHg 48%
    16:00 +22°C° 0 mm 5 mps 739 mmHg 47%
    17:00 +22°C° 0 mm 5 mps 739 mmHg 47%
    18:00 +22°C° 0 mm 5 mps 739 mmHg 46%
    19:00 +21°C° 0 mm 4 mps 740 mmHg 49%
    20:00 +20°C° 0 mm 3 mps 740 mmHg 52%
    21:00 +19°C° 0 mm 2 mps 740 mmHg 55%
    22:00 +20°C° 0 mm 1 mps 740 mmHg 57%
    23:00 +19°C° 0 mm 1 mps 740 mmHg 58%
    Show more